7 * 24
多渠道服务支持
IRIDIUM 42 是 Iridium 卫星通信网络中的一个成员,属于 Iridium NEXT 项目的一部分。该卫星由 SpaceX 于 2017 年发射,旨在提供全球范围内的语音和数据通信服务。它运行在低地球轨道,与其他 Iridium 卫星共同构建了一个覆盖全球的星座系统,广泛应用于航空、航海、政府和应急通信等领域。IRIDIUM 42 具备抗干扰能力强、信号稳定等优点,是现代卫星通信技术的重要组成部分。
美国
(US)
| 数据来源 | 国际轨道数据 |
| 星历时间: | 2025-10-28T23:33:27+0800 16小时前 查看轨道信息 |
| 半长轴: | 7148.289km |
| 偏心率: | 0.0002754 |
| 轨道倾角: | 86.402° |
| 近地点辐角 | 73.129° |
| 升交点赤经 | 183.389° |
| 平近点角 | 287.021° |
| 近地点: | 768.185km |
| 远地点: | 772.123km |
| 周期: | 100.245分钟 |
| 每日圈数: | 14.364803 |